Regional Weather Roundup
Issued by NWS

Home | Current Version | Previous Version | Text Only | Print | Product List | Glossary On
Versions: 1 2 3 4 5 6 7 8 9 10 11 12 13 14 15 16 17 18 19 20 21 22 23 24 25 26 27 28 29 30 31 32 33 34 35 36 37 38 39 40 41 42 43 44 45 46 47 48 49 50
000
ASUS44 KMEG 240110
RWRTN
TENNESSEE HOURLY STATE WEATHER ROUNDUP
NATIONAL WEATHER SERVICE MEMPHIS TN
800 PM CDT TUE MAY 23 2017

TNZ002-004-019-021-049-052-054-088>092-240200-
WEST TENNESSEE

CITY           SKY/WX    TMP DP  RH WIND       PRES   REMARKS
MEMPHIS INTL   CLOUDY    70  58  65 W10       29.68R
NWS MEMPHIS      N/A     71 N/A N/A MISG        N/A
JACKSON        PTCLDY    70  54  56 SW3       29.66R
DYERSBURG        N/A    N/A N/A N/A MISG        N/A
COVINGTON      CLOUDY    72  55  56 NW6       29.67S
UNION CITY     CLOUDY    72  54  53 NW7       29.66R
BOLIVAR        PTCLDY    68  57  68 CALM      29.66R
PARIS          MOCLDY    70  55  60 CALM      29.65R
HUNTINGDON     PTCLDY    70  59  68 CALM      29.65R
LEXINGTON      CLEAR     72  57  60 MISG      29.66R
SELMER         CLEAR     66  61  82 CALM      29.66R
SAVANNAH       PTCLDY    72  59  64 CALM      29.65S
$$

TNZ008-025-027-028-033-062-065-066-240200-
NORTH MIDDLE TENNESSEE

CITY           SKY/WX    TMP DP  RH WIND       PRES   REMARKS
NASHVILLE      MOCLDY    72  57  59 NW7       29.66R
PORTLAND       CLEAR     70  54  56 W6        29.65R
CLARKSVILLE    PTCLDY    68  52  56 N6        29.65R
SMYRNA         PTCLDY    70  59  68 NW3       29.66R
COOKEVILLE     CLOUDY    68  64  88 CALM      29.65S
GALLATIN       CLEAR     68  63  83 CALM      29.67R
CROSSVILLE     LGT RAIN  65  62  90 CALM      29.70R
$$

TNZ061-075-076-078-094-096-097-240200-
SOUTH MIDDLE TENNESSEE

CITY           SKY/WX    TMP DP  RH WIND       PRES   REMARKS
FAYETTEVILLE   PTCLDY    72  61  68 W3        29.66R
TULLAHOMA      CLEAR     70  61  73 W3        29.67S
WINCHESTER     MOCLDY    66  61  82 SE6         N/A
MCMINNVILLE    PTCLDY    66  63  88 CALM      29.67S
COLUMBIA       CLEAR     72  59  64 CALM      29.64R
SHELBYVILLE    CLEAR     70  61  73 CALM      29.65S
$$

TNZ017-018-042-046-047-240200-
NORTHEAST TENNESSEE

CITY           SKY/WX    TMP DP  RH WIND       PRES   REMARKS
TRI CITIES     CLOUDY    64  63  96 CALM      29.68F
ELIZABETHTON   CLOUDY    64  63  94 CALM      29.68F
$$

TNZ012-013-036-069-073-074-240200-
CENTRAL EAST TENNESSEE

CITY           SKY/WX    TMP DP  RH WIND       PRES   REMARKS
KNOXVILLE      CLOUDY    70  63  78 SW3       29.66R
OAK RIDGE      MOCLDY    67  63  87 CALM      29.68R
DOWNTOWN KNOXV PTCLDY    68  66  94 CALM      29.66S
GATLINBURG     PTCLDY    64  63  94 CALM      29.66S
MORRISTOWN     CLOUDY    66  64  94 CALM      29.66F
JACKSBORO      CLOUDY    64  63  94 CALM      29.70R
$$

TNZ083-085-099-240200-
SOUTHEAST TENNESSEE

CITY           SKY/WX    TMP DP  RH WIND       PRES   REMARKS
CHATTANOOGA    LGT RAIN  69  66  90 VRB3      29.67R
$$

SKY/WX REPORTED AS FAIR MEANS FEW OR NO CLOUDS BELOW
12 THOUSAND FEET.




USA.gov is the U.S. government's official web portal to all federal, state and local government web resources and services.